| time (UTC) | temp F | wind direction | speed MPH | gust MPH | rain 1hr in | rain 24hr in | rain mn in | humidity % | barometer mb |
| 20260510203056 | 77 | 0 | 0.0 | 3.0 | 0.00 | 0.01 | 0.01 | 50 | 1010.9 |
| 20260510201609 | 77 | 0 | 0.0 | 4.0 | 0.00 | 0.01 | 0.01 | 49 | 1011.1 |
| 20260510200059 | 78 | 0 | 0.0 | 7.0 | 0.00 | 0.01 | 0.01 | 48 | 1011.3 |
| 20260510194557 | 78 | 250 | 0.0 | 7.0 | 0.00 | 0.01 | 0.01 | 48 | 1011.6 |
| 20260510193058 | 78 | 0 | 1.0 | 4.0 | 0.00 | 0.01 | 0.01 | 51 | 1011.6 |
| 20260510191559 | 76 | 0 | 0.0 | 3.0 | 0.00 | 0.01 | 0.01 | 53 | 1012.0 |
| 20260510190103 | 76 | 0 | 0.0 | 2.0 | 0.00 | 0.01 | 0.01 | 51 | 1012.0 |
| 20260510184602 | 76 | 0 | 1.0 | 7.0 | 0.00 | 0.01 | 0.01 | 51 | 1012.1 |
| 20260510183059 | 77 | 0 | 0.0 | 5.0 | 0.00 | 0.01 | 0.01 | 50 | 1011.9 |
| 20260510181607 | 77 | 0 | 1.0 | 9.0 | 0.00 | 0.01 | 0.01 | 51 | 1012.0 |
| 20260510180107 | 77 | 0 | 0.0 | 6.0 | 0.00 | 0.01 | 0.01 | 52 | 1012.1 |
| 20260510174558 | 76 | 0 | 1.0 | 7.0 | 0.00 | 0.01 | 0.01 | 54 | 1012.0 |
| 20260510173054 | 76 | 0 | 1.0 | 9.0 | 0.00 | 0.01 | 0.01 | 56 | 1012.1 |
| 20260510171600 | 74 | 324 | 3.0 | 11.0 | 0.00 | 0.01 | 0.01 | 57 | 1012.2 |
| 20260510170122 | 73 | 0 | 1.0 | 11.0 | 0.00 | 0.01 | 0.01 | 61 | 1012.2 |
| 20260510164605 | 73 | 0 | 0.0 | 7.0 | 0.00 | 0.01 | 0.01 | 61 | 1012.2 |
| 20260510163059 | 72 | 0 | 0.0 | 6.0 | 0.00 | 0.01 | 0.01 | 62 | 1012.3 |
| 20260510161555 | 70 | 0 | 1.0 | 7.0 | 0.00 | 0.01 | 0.01 | 68 | 1012.3 |
| 20260510160054 | 69 | 281 | 1.0 | 5.0 | 0.00 | 0.01 | 0.01 | 67 | 1012.5 |
| 20260510154554 | 69 | 0 | 1.0 | 7.0 | 0.00 | 0.01 | 0.01 | 70 | 1012.5 |
| 20260510153056 | 68 | 0 | 0.0 | 5.0 | 0.00 | 0.01 | 0.01 | 74 | 1012.5 |
| 20260510151557 | 66 | 0 | 0.0 | 2.0 | 0.00 | 0.01 | 0.01 | 76 | 1012.5 |
| 20260510150055 | 63 | 348 | 1.0 | 3.0 | 0.00 | 0.01 | 0.01 | 82 | 1012.5 |
| 20260510144555 | 62 | 0 | 0.0 | 4.0 | 0.00 | 0.01 | 0.01 | 85 | 1012.4 |
| 20260510143100 | 60 | 0 | 0.0 | 3.0 | 0.00 | 0.01 | 0.01 | 90 | 1012.8 |
| 20260510141557 | 58 | 0 | 0.0 | 4.0 | 0.00 | 0.01 | 0.01 | 95 | 1012.7 |
| 20260510140056 | 56 | 0 | 0.0 | 2.0 | 0.00 | 0.01 | 0.01 | 95 | 1012.8 |
| 20260510134557 | 56 | 0 | 0.0 | 1.0 | 0.00 | 0.01 | 0.01 | 95 | 1012.5 |
| 20260510133055 | 55 | 0 | 0.0 | 2.0 | 0.00 | 0.01 | 0.01 | 95 | 1012.7 |
| 20260510131552 | 54 | 194 | 1.0 | 4.0 | 0.00 | 0.01 | 0.01 | 95 | 1012.8 |
| 20260510130058 | 54 | 0 | 0.0 | 2.0 | 0.00 | 0.01 | 0.01 | 95 | 1012.4 |
| 20260510124609 | 54 | 0 | 0.0 | 0.0 | 0.00 | 0.01 | 0.01 | 95 | 1012.1 |
| 20260510123058 | 53 | 0 | 0.0 | 2.0 | 0.00 | 0.01 | 0.01 | 95 | 1012.2 |
| 20260510121553 | 53 | 19 | 0.0 | 3.0 | 0.00 | 0.01 | 0.01 | 95 | 1012.1 |
| 20260510120054 | 53 | 18 | 0.0 | 3.0 | 0.00 | 0.01 | 0.01 | 95 | 1012.1 |
| 20260510114556 | 52 | 0 | 1.0 | 4.0 | 0.00 | 0.01 | 0.01 | 95 | 1011.9 |
| 20260510113054 | 52 | 15 | 0.0 | 4.0 | 0.00 | 0.01 | 0.01 | 95 | 1011.7 |
| 20260510111553 | 51 | 0 | 0.0 | 4.0 | 0.00 | 0.01 | 0.01 | 95 | 1011.4 |
| 20260510110054 | 51 | 5 | 1.0 | 4.0 | 0.00 | 0.01 | 0.01 | 95 | 1011.5 |
| 20260510104557 | 51 | 111 | 1.0 | 7.0 | 0.00 | 0.01 | 0.01 | 95 | 1011.0 |
| 20260510103056 | 51 | 105 | 0.0 | 3.0 | 0.00 | 0.01 | 0.01 | 95 | 1011.0 |
| 20260510101554 | 50 | 0 | 0.0 | 3.0 | 0.00 | 0.01 | 0.01 | 95 | 1011.3 |
| 20260510100100 | 50 | 12 | 1.0 | 3.0 | 0.00 | 0.01 | 0.01 | 95 | 1011.3 |
| 20260510094553 | 50 | 0 | 0.0 | 6.0 | 0.00 | 0.01 | 0.01 | 94 | 1011.1 |
| 20260510093101 | 49 | 355 | 2.0 | 5.0 | 0.00 | 0.01 | 0.01 | 95 | 1011.0 |
| 20260510091553 | 49 | 10 | 2.0 | 8.0 | 0.00 | 0.01 | 0.01 | 94 | 1010.8 |
| 20260510090114 | 49 | 55 | 1.0 | 3.0 | 0.01 | 0.01 | 0.01 | 94 | 1010.3 |
| 20260510084552 | 49 | 0 | 0.0 | 2.0 | 0.01 | 0.01 | 0.01 | 94 | 1010.4 |
| 20260510083100 | 49 | 0 | 0.0 | 1.0 | 0.01 | 0.01 | 0.01 | 94 | 1010.4 |
| 20260510081554 | 48 | 0 | 0.0 | 3.0 | 0.01 | 0.01 | 0.01 | 94 | 1010.3 |
| 20260510080052 | 48 | 0 | 1.0 | 3.0 | 0.00 | 0.00 | 0.00 | 94 | 1010.2 |
| 20260510074552 | 48 | 0 | 0.0 | 3.0 | 0.00 | 0.00 | 0.00 | 94 | 1010.0 |
| 20260510073055 | 48 | 16 | 1.0 | 4.0 | 0.00 | 0.00 | 0.00 | 94 | 1010.0 |
| 20260510071553 | 48 | 0 | 0.0 | 0.0 | 0.00 | 0.00 | 0.00 | 94 | 1009.7 |
| 20260510070057 | 48 | 0 | 0.0 | 0.0 | 0.00 | 0.00 | 0.00 | 94 | 1009.7 |
| 20260510064554 | 48 | 0 | 0.0 | 0.0 | 0.00 | 0.00 | 0.00 | 94 | 1009.6 |
| 20260510063053 | 48 | 0 | 0.0 | 0.0 | 0.00 | 0.00 | 0.00 | 94 | 1009.6 |
| 20260510061555 | 48 | 0 | 0.0 | 0.0 | 0.00 | 0.00 | 0.00 | 93 | 1009.8 |
| 20260510060054 | 49 | 0 | 0.0 | 0.0 | 0.00 | 0.00 | 0.00 | 93 | 1009.7 |
| 20260510054551 | 49 | 0 | 0.0 | 0.0 | 0.00 | 0.00 | 0.00 | 93 | 1010.0 |
| 20260510053055 | 49 | 0 | 0.0 | 0.0 | 0.00 | 0.00 | 0.00 | 93 | 1010.1 |
| 20260510051559 | 49 | 0 | 0.0 | 0.0 | 0.00 | 0.00 | 0.00 | 93 | 1010.1 |
| 20260510050055 | 49 | 0 | 0.0 | 0.0 | 0.00 | 0.00 | 0.00 | 93 | 1010.1 |
| 20260510044557 | 49 | 0 | 0.0 | 0.0 | 0.00 | 0.00 | 0.00 | 93 | 1010.3 |
| 20260510043058 | 49 | 0 | 0.0 | 0.0 | 0.00 | 0.00 | 0.00 | 92 | 1010.3 |
| 20260510041601 | 50 | 0 | 0.0 | 0.0 | 0.00 | 0.00 | 0.00 | 93 | 1010.4 |
| 20260510040101 | 50 | 0 | 0.0 | 0.0 | 0.00 | 0.00 | 0.00 | 92 | 1010.4 |
| 20260510034552 | 50 | 0 | 0.0 | 0.0 | 0.00 | 0.00 | 0.00 | 92 | 1010.2 |
| 20260510033115 | 50 | 0 | 0.0 | 0.0 | 0.00 | 0.00 | 0.00 | 92 | 1010.2 |
| 20260510031553 | 51 | 0 | 0.0 | 0.0 | 0.00 | 0.00 | 0.00 | 92 | 1010.0 |
| 20260510030056 | 51 | 0 | 0.0 | 0.0 | 0.00 | 0.00 | 0.00 | 92 | 1010.1 |
| 20260510024605 | 51 | 0 | 0.0 | 0.0 | 0.00 | 0.00 | 0.00 | 92 | 1010.0 |
| 20260510023055 | 52 | 0 | 0.0 | 0.0 | 0.00 | 0.00 | 0.00 | 92 | 1010.0 |
| 20260510021553 | 52 | 0 | 0.0 | 0.0 | 0.00 | 0.00 | 0.00 | 91 | 1010.0 |
| 20260510020057 | 52 | 0 | 0.0 | 0.0 | 0.00 | 0.00 | 0.00 | 91 | 1009.9 |
| 20260510014553 | 53 | 0 | 0.0 | 0.0 | 0.00 | 0.00 | 0.00 | 91 | 1010.0 |
| 20260510013052 | 53 | 0 | 0.0 | 0.0 | 0.00 | 0.00 | 0.00 | 90 | 1010.1 |
| 20260510011555 | 53 | 0 | 0.0 | 0.0 | 0.00 | 0.00 | 0.00 | 90 | 1009.9 |
| 20260510010053 | 54 | 0 | 0.0 | 0.0 | 0.00 | 0.00 | 0.00 | 88 | 1009.8 |
| 20260510004556 | 55 | 0 | 0.0 | 0.0 | 0.00 | 0.00 | 0.00 | 88 | 1009.7 |
| 20260510003104 | 56 | 0 | 0.0 | 0.0 | 0.00 | 0.00 | 0.00 | 86 | 1009.6 |
| 20260510001556 | 56 | 0 | 0.0 | 0.0 | 0.00 | 0.00 | 0.00 | 84 | 1009.6 |
| 20260510000058 | 57 | 0 | 0.0 | 0.0 | 0.00 | 0.00 | 0.00 | 83 | 1009.6 |
| 20260509234606 | 58 | 0 | 0.0 | 2.0 | 0.00 | 0.00 | 0.00 | 82 | 1009.6 |
| 20260509233054 | 58 | 115 | 0.0 | 3.0 | 0.00 | 0.00 | 0.00 | 82 | 1009.3 |
| 20260509231601 | 59 | 121 | 1.0 | 5.0 | 0.00 | 0.00 | 0.00 | 81 | 1009.1 |
| 20260509230058 | 58 | 0 | 0.0 | 4.0 | 0.00 | 0.00 | 0.00 | 82 | 1009.1 |
| 20260509224559 | 59 | 96 | 0.0 | 4.0 | 0.00 | 0.00 | 0.00 | 82 | 1009.5 |
| 20260509223059 | 59 | 81 | 2.0 | 5.0 | 0.00 | 0.00 | 0.00 | 81 | 1009.4 |
| 20260509221555 | 59 | 77 | 0.0 | 3.0 | 0.00 | 0.00 | 0.00 | 80 | 1009.5 |
| 20260509220058 | 60 | 55 | 0.0 | 3.0 | 0.00 | 0.00 | 0.00 | 77 | 1009.8 |
| 20260509214555 | 60 | 0 | 0.0 | 8.0 | 0.00 | 0.00 | 0.00 | 74 | 1009.6 |
| 20260509213057 | 61 | 339 | 3.0 | 9.0 | 0.00 | 0.00 | 0.00 | 73 | 1010.2 |
| 20260509211558 | 62 | 0 | 0.0 | 4.0 | 0.00 | 0.00 | 0.00 | 71 | 1009.8 |
| 20260509210058 | 62 | 45 | 2.0 | 7.0 | 0.00 | 0.00 | 0.00 | 71 | 1009.5 |
| 20260509204556 | 62 | 104 | 1.0 | 9.0 | 0.00 | 0.00 | 0.00 | 72 | 1009.5 |